Location: Malvern Link
(52.1333°N, 2.3000°W)
Time: 05:49:50
(UTC+00:00)

Envisat - Pass Details

Date: 24 January 2022
Orbit: 764 x 765 km, 98.2° (Epoch: 25 May)

Event Time Altitude Azimuth Distance (km) Brightness Sun altitude
Rises 07:08:44 0° 4° (N) 3,245 6.1 -8.1°
Reaches altitude 10° 07:11:54 10° 344° (NNW) 2,314 5.1 -7.6°
Maximum altitude 07:14:51 16° 308° (NW) 1,939 4.5 -7.2°
Drops below altitude 10° 07:17:48 10° 272° (W) 2,307 4.9 -6.8°
Sets 07:20:57 0° 251° (WSW) 3,229 5.8 -6.3°
